DW7098 Weather Reports


time (UTC)temp
C
wind
direction
speed
KPH
gust
KPH
rain 1hr
cm
rain 24hr
cm
rain mn
cm
humidity
%
barometer
mb
20260906150106 11 94 0.0 3.2 0.00 0.00 0.00
20260906143030 11 70 0.0 0.0 0.00 0.00 0.00
20260906140104 11 70 0.0 0.0 0.00 0.00 0.00
20260906133048 11 70 0.0 1.6 0.00 0.00 0.00
20260906123053 11 70 0.0 0.0 0.00 0.00 0.00
20260906120120 11 61 1.6 4.8 0.00 0.00 0.00
20260906113038 11 65 0.0 0.0 0.00 0.00 0.00
20260906103032 11 65 0.0 1.6 0.00 0.00 0.00
20260906100103 11 65 0.0 0.0 0.00 0.00 0.00
20260906093050 11 65 0.0 0.0 0.00 0.00 0.00
20260906090121 12 65 0.0 0.0 0.00 0.00 0.00
20260906073028 12 66 0.0 3.2 0.00 0.00 0.00
20260906070120 13 101 0.0 0.0 0.00 0.00 0.00
20260906053056 13 93 0.0 0.0 0.00 0.00 0.00
20260906050112 14 93 0.0 0.0 0.00 0.00 0.00
20260906030101 16 207 0.0 0.0 0.00 0.00 0.00
20260906023049 17 207 0.0 0.0 0.00 0.00 0.00
20260906013052 18 217 0.0 6.4 0.00 0.00 0.00
20260906010115 18 185 1.6 8.0 0.00 0.00 0.00
20260906003045 19 85 1.6 8.0 0.00 0.00 0.00
20260906000124 20 60 1.6 9.7 0.00 0.00 0.00
20260905233101 22 61 1.6 6.4 0.00 0.00 0.00
20260905230113 22 279 1.6 6.4 0.00 0.00 0.00
20260905223027 20 202 0.0 8.0 0.00 0.00 0.00
20260905210123 21 95 3.2 4.8 0.00 0.00 0.00
20260905203047 20 85 3.2 9.7 0.00 0.00 0.00
20260905200122 20 78 1.6 6.4 0.00 0.00 0.00
20260905193100 18 74 1.6 8.0 0.00 0.00 0.00
20260905190112 17 65 3.2 8.0 0.00 0.00 0.00
20260905183038 17 74 1.6 9.7 0.00 0.00 0.00
20260905180110 15 79 1.6 4.8 0.00 0.00 0.00
20260905173028 14 100 1.6 4.8 0.00 0.00 0.00
20260905170108 13 58 1.6 4.8 0.00 0.00 0.00
20260905163050 13 66 1.6 3.2 0.00 0.00 0.00
20260905160118 12 64 1.6 4.8 0.00 0.00 0.00
20260905153046 12 65 0.0 6.4 0.00 0.00 0.00